ONEWEB-0391 (50471 NORAD) Tracking and Keplerian Element Data

This shows tracking and keplerian element data for the satellite.

Feedback or suggestion? Click here.




ElementValue
Catalog50471
NameONEWEB-0391
Epoch Orbit130
Epoch Day140.58334491
Epoch Year2022
RAAN305.317
Inclination87.3134
Eccentricity0.0004026
Argument of Perigee122.8882
Mean Anonmoly196.2759
Mean Motion14.62691641
Decay Rate-0.01174349
L11 50471U 21132C 22140.58334491 -.01174349 00000+0 -24697+0 0 9999
L22 50471 87.3134 305.3170 0004026 122.8882 196.2759 14.62691641 1300

Live tracking and technical data element details for ONEWEB-0391 (NORAD 50471). ONEWEB-0391 can be tracked NOW for your location showing map with azimuth and elevation plus other details from your city location.

Track the satellite on the map from your city or location and see movement details for azimuth, elevation, latitude, longitude, range, height, and movement on the map or in text.







IsCatalogInMostPopularTable: catalog: 50471, numindb: 20
Update: records affected: 1



GetName: 50471 ONEWEB-0391

Hit Count: updated at: Mon, 23 May 2022 21:22:41 GMT